[[{"header":{"parameterUnit":"m.s-1","parameterCategory":1,"la1":30.2991,"la2":30.254,"lo1":-89.0895,"lo2":-89.0444,"dy":0.0017,"dx":0.0017,"nx":28,"ny":28,"refTime":"2024-04-05T09:00:00:Z","depth":0,"parameterNumber":2,"parameterNumberName":"U-component_of_WINDS"},"data":[0,0,0,0,0,0,0,0,0,0,0,0,0,0,0,0,0,0,0,0,0,0,0,0,0,0,0,0,0,0,0,0,0,0,0,0,0,0,0,0,0,0,0,0,0,0,0,0,0,0,0,0,0,0,0,0,0,0,1.165,1.165,0,1.1636,1.1636,1.1635,1.1604,1.1603,1.1603,1.1602,1.1587,1.1587,1.1588,0,0,0,0,0,0,0,0,0,0,0,0,0,1.1653,1.1653,1.165,1.165,1.165,1.1636,1.1636,1.1635,1.1604,1.1603,1.1602,1.1602,1.1587,1.1587,1.1588,0,0,0,0,0,0,0,0,0,0,0,0,0,1.1647,1.1653,1.165,1.1633,1.1631,1.1636,1.1636,1.1635,1.1604,1.1603,1.1602,1.1601,1.1587,1.1587,1.1588,1.1609,0,0,1.1589,1.1589,0,0,0,0,0,0,0,0,1.1647,1.1647,1.1636,1.1634,1.1632,1.1621,1.1631,1.1626,1.1604,1.1614,1.1602,1.1601,1.1599,1.1598,1.1598,1.1608,1.1607,1.1589,1.1589,1.1589,1.1589,0,0,0,0,0,0,0,1.1648,1.1647,1.1645,1.1635,1.1633,1.1626,1.1624,1.163,1.1612,1.1613,1.1611,1.161,1.1598,1.1597,1.1597,1.1607,1.1589,1.1589,1.1589,1.1589,1.1636,1.1637,0,0,0,0,0,0,1.165,1.1648,1.1645,1.1644,1.1637,1.1627,1.1625,1.1625,1.1612,1.1609,1.1611,1.1608,1.1597,1.1597,1.1596,1.1621,1.1589,1.1589,1.1589,1.1635,1.1636,1.1637,0,0,0,0,0,0,1.1651,1.165,1.1646,1.1645,1.1644,1.1628,1.1629,1.1625,1.1625,1.161,1.1607,1.1613,1.1597,1.1596,1.1606,1.162,1.1589,1.159,1.1633,1.1635,1.1637,1.167,0,0,0,0,0,0,1.1651,1.1651,1.1658,1.1646,1.1644,1.1655,1.163,1.1626,1.1625,1.1622,1.1612,1.1609,1.1596,1.1606,1.1607,1.162,1.159,1.1632,1.1634,1.1636,1.1667,1.1672,1.1677,0,0,0,0,0,1.1651,1.1667,1.1658,1.1658,1.1653,1.1656,1.1655,1.164,1.1627,1.1634,1.1625,1.1609,1.1619,1.1607,1.1608,1.1621,1.1631,1.1634,1.1636,1.1665,1.1671,1.1676,0,0,0,0,0,0,1.1681,1.1665,1.1655,1.1668,1.1664,1.1651,1.1659,1.1646,1.1645,1.1643,1.1624,1.1622,1.1635,1.1629,1.1617,1.1642,1.1623,1.1625,1.1645,1.165,1.1655,1.1656,1.159,0,0,0,0,0,1.169,1.1693,1.1679,1.1692,1.169,1.1676,1.1676,1.1665,1.166,1.1657,1.1649,1.1645,1.1647,1.1648,1.1649,1.1667,1.1665,1.1677,1.1681,1.1685,1.1687,1.1698,1.1703,1.1645,1.1645,1.1645,0,0,1.1706,1.1698,1.1701,1.1698,1.1693,1.1698,1.1674,1.1679,1.1683,1.1658,1.1667,1.1661,1.1656,1.167,1.1676,1.1666,1.1703,1.1688,1.1691,1.1691,1.1701,1.1706,1.1711,1.1647,1.1646,1.1646,0,0,1.1739,1.1733,1.1744,1.174,1.1733,1.1724,1.1727,1.1716,1.1711,1.172,1.1702,1.1707,1.171,1.1707,1.1706,1.1741,1.1727,1.1742,1.1766,1.1776,1.1781,1.1785,1.1798,1.1802,1.1745,1.1745,1.1745,0,1.1761,1.1767,1.1751,1.1758,1.1758,1.1737,1.1748,1.1745,1.1739,1.1739,1.1728,1.1734,1.1728,1.1742,1.1751,1.1751,1.1754,1.1743,1.1781,1.1785,1.1788,1.1801,1.1806,1.1747,1.1746,1.1746,1.1746,0,1.1794,1.1799,1.1808,1.1804,1.1804,1.1813,1.18,1.1803,1.1792,1.1784,1.1795,1.1788,1.1788,1.1791,1.178,1.1804,1.1798,1.1784,1.1764,1.1796,1.1807,1.1812,1.1749,1.1749,1.1748,1.1748,0,0,1.1843,1.1832,1.1835,1.1834,1.1826,1.183,1.1839,1.1839,1.1842,1.184,1.1847,1.1852,1.1841,1.184,1.1829,1.1838,1.1867,1.1823,1.1823,1.1832,1.1894,1.1904,1.1909,1.1858,1.1859,1.186,1.1895,0,1.1874,1.1888,1.1876,1.1892,1.1897,1.1879,1.1887,1.1884,1.1877,1.1881,1.1874,1.1878,1.1861,1.1861,1.1869,1.1862,1.1879,1.1859,1.1866,1.1866,1.1867,1.1915,1.1925,1.1958,1.1899,1.19,1.19,0,1.1911,1.1911,1.1929,1.1922,1.1923,1.1931,1.1931,1.1935,1.1931,1.1926,1.1927,1.1914,1.1924,1.1905,1.1919,1.1905,1.1908,1.1905,1.1906,1.1905,1.1884,1.1916,1.1968,1.1973,1.1907,1.1906,1.1906,0,1.1946,1.195,1.1962,1.1961,1.1953,1.1959,1.1956,1.1952,1.1953,1.1954,1.1955,1.1957,1.1958,1.196,1.1949,1.1937,1.1965,1.1945,1.1961,1.1962,1.1967,1.1966,1.202,1.1969,1.1969,1.1969,1.1969,0,1.1981,1.1993,1.1977,1.1984,1.1997,1.1983,1.1997,1.1992,1.1989,1.1995,1.198,1.1987,1.1972,1.1977,1.1969,1.1982,1.1983,1.1979,1.1977,1.198,1.1981,1.1981,1.1978,1.197,1.197,1.197,1.197,0,1.2021,1.2011,1.2022,1.2015,1.2013,1.2023,1.2017,1.2024,1.2017,1.2026,1.2027,1.2017,1.2023,1.2012,1.2017,1.2011,1.203,1.2024,1.2031,1.2029,1.2046,1.2044,1.2101,1.2108,1.2053,1.2053,1.2054,0,1.2044,1.2052,1.2046,1.205,1.2048,1.2053,1.2055,1.2043,1.2046,1.2044,1.2051,1.2056,1.2059,1.2069,1.2063,1.2067,1.2061,1.208,1.2061,1.2065,1.2061,1.2061,1.2062,1.2084,1.2085,1.2085,1.2086,0,1.2085,1.2081,1.2084,1.2086,1.209,1.2091,1.2091,1.2095,1.2082,1.2086,1.2092,1.2095,1.21,1.2105,1.2108,1.2106,1.2094,1.2092,1.2096,1.2099,1.2103,1.2102,1.2041,1.209,1.209,1.209,1.2089,1.2089,1.2117,1.2125,1.2122,1.2127,1.2126,1.2127,1.2133,1.2129,1.2133,1.2136,1.2129,1.2138,1.2136,1.2139,1.2138,1.2145,1.2137,1.2142,1.2143,1.2145,1.2148,1.2103,1.2146,1.2146,1.2145,1.2145,1.2145,0,1.2158,1.2156,1.2161,1.2162,1.2167,1.2156,1.2156,1.2161,1.2168,1.2168,1.2172,1.218,1.2185,1.218,1.2185,1.2192,1.2187,1.2193,1.2192,1.2192,1.2155,1.2151,1.2198,1.2198,1.2198,1.2197,1.2197,1.2197,1.218,1.2192,1.2188,1.22,1.2198,1.2206,1.2207,1.2209,1.2209,1.2218,1.2223,1.222,1.2218,1.2223,1.2229,1.2227,1.223,1.2238,1.2235,1.22,1.2195,1.219,1.2186,1.2239,1.2239,1.2272,1.2272,1.2272]},{"header":{"parameterUnit":"m.s-1","parameterCategory":1,"la1":30.2991,"la2":30.254,"lo1":-89.0895,"lo2":-89.0444,"dy":0.0017,"dx":0.0017,"nx":28,"ny":28,"refTime":"2024-04-05T09:00:00:Z","depth":0,"parameterNumber":3,"parameterNumberName":"V-component_of_WINDS"},"data":[0,0,0,0,0,0,0,0,0,0,0,0,0,0,0,0,0,0,0,0,0,0,0,0,0,0,0,0,0,0,0,0,0,0,0,0,0,0,0,0,0,0,0,0,0,0,0,0,0,0,0,0,0,0,0,0,0,0,-1.6473,-1.6472,0,-1.6422,-1.6422,-1.6421,-1.646,-1.6462,-1.6464,-1.6465,-1.6407,-1.6404,-1.6401,0,0,0,0,0,0,0,0,0,0,0,0,0,-1.6597,-1.6594,-1.6473,-1.6472,-1.6472,-1.6423,-1.6422,-1.6421,-1.646,-1.6462,-1.6464,-1.6466,-1.6408,-1.6405,-1.6401,0,0,0,0,0,0,0,0,0,0,0,0,0,-1.6544,-1.6593,-1.6473,-1.6485,-1.6486,-1.6423,-1.6422,-1.6421,-1.646,-1.6462,-1.6465,-1.6467,-1.641,-1.6405,-1.64,-1.632,0,0,-1.6386,-1.6384,0,0,0,0,0,0,0,0,-1.6547,-1.6539,-1.6484,-1.6484,-1.6485,-1.6451,-1.6444,-1.6387,-1.6459,-1.6469,-1.6465,-1.6468,-1.6419,-1.6414,-1.6399,-1.6318,-1.6315,-1.6386,-1.6383,-1.6381,-1.6379,0,0,0,0,0,0,0,-1.6551,-1.6542,-1.6453,-1.6483,-1.6484,-1.6491,-1.6487,-1.6434,-1.643,-1.6469,-1.6471,-1.6465,-1.642,-1.6403,-1.6398,-1.6314,-1.6386,-1.6382,-1.6379,-1.6377,-1.6162,-1.616,0,0,0,0,0,0,-1.6554,-1.6545,-1.6454,-1.6451,-1.6523,-1.6487,-1.6482,-1.6459,-1.6431,-1.643,-1.6463,-1.6467,-1.641,-1.6403,-1.6396,-1.6298,-1.6381,-1.6376,-1.6374,-1.6165,-1.6162,-1.6159,0,0,0,0,0,0,-1.6556,-1.6546,-1.6456,-1.6499,-1.6488,-1.6482,-1.6456,-1.6456,-1.644,-1.6427,-1.6426,-1.6447,-1.6412,-1.6402,-1.6339,-1.6296,-1.6374,-1.637,-1.6169,-1.6164,-1.616,-1.6102,0,0,0,0,0,0,-1.656,-1.6546,-1.6517,-1.6498,-1.6486,-1.6402,-1.6454,-1.6454,-1.6432,-1.6437,-1.6411,-1.641,-1.6413,-1.6345,-1.6334,-1.6291,-1.6366,-1.6172,-1.6167,-1.6161,-1.6108,-1.6096,-1.6087,0,0,0,0,0,-1.6564,-1.6502,-1.6515,-1.6504,-1.645,-1.6399,-1.6392,-1.6399,-1.6429,-1.6398,-1.639,-1.641,-1.6304,-1.6339,-1.6326,-1.6281,-1.6175,-1.6168,-1.6162,-1.6112,-1.6099,-1.6087,0,0,0,0,0,0,-1.6514,-1.65,-1.6514,-1.6445,-1.6423,-1.6406,-1.6368,-1.6384,-1.6352,-1.6358,-1.6366,-1.636,-1.6292,-1.6281,-1.632,-1.6201,-1.6244,-1.6234,-1.621,-1.6197,-1.6187,-1.6189,-1.6362,0,0,0,0,0,-1.6496,-1.6458,-1.6447,-1.6386,-1.6375,-1.6373,-1.6352,-1.6359,-1.6336,-1.6327,-1.6314,-1.6289,-1.625,-1.6223,-1.6187,-1.6108,-1.6101,-1.607,-1.606,-1.6051,-1.6042,-1.5996,-1.5981,-1.6137,-1.6137,-1.6137,0,0,-1.6456,-1.6443,-1.6419,-1.6376,-1.636,-1.6319,-1.6365,-1.632,-1.6288,-1.6319,-1.6258,-1.6248,-1.6221,-1.6148,-1.6115,-1.6136,-1.5998,-1.6043,-1.6036,-1.6031,-1.5988,-1.5973,-1.596,-1.6133,-1.6134,-1.6134,0,0,-1.6361,-1.635,-1.6297,-1.628,-1.6256,-1.6256,-1.6243,-1.6224,-1.6218,-1.6158,-1.6179,-1.6141,-1.6074,-1.6053,-1.6034,-1.5931,-1.5947,-1.5919,-1.5862,-1.5818,-1.5806,-1.5795,-1.5755,-1.5741,-1.5911,-1.5911,-1.5911,0,-1.6314,-1.6254,-1.6267,-1.6219,-1.6199,-1.6227,-1.6172,-1.6155,-1.6119,-1.6103,-1.6128,-1.6044,-1.6028,-1.5949,-1.5924,-1.5909,-1.5892,-1.592,-1.5807,-1.5796,-1.5786,-1.5748,-1.5733,-1.5907,-1.5908,-1.5908,-1.5908,0,-1.6195,-1.6154,-1.6114,-1.608,-1.6055,-1.6004,-1.6007,-1.598,-1.599,-1.5985,-1.5922,-1.5904,-1.5863,-1.5846,-1.5854,-1.5768,-1.5781,-1.5807,-1.5849,-1.5767,-1.5731,-1.5717,-1.5902,-1.5903,-1.5904,-1.5905,0,0,-1.6065,-1.604,-1.6025,-1.6009,-1.5985,-1.5952,-1.5902,-1.5864,-1.5839,-1.5814,-1.5769,-1.5712,-1.5735,-1.5713,-1.572,-1.5681,-1.5597,-1.5711,-1.571,-1.5687,-1.5496,-1.5475,-1.5458,-1.5609,-1.5607,-1.5605,-1.5497,0,-1.5967,-1.5881,-1.589,-1.5807,-1.5767,-1.5794,-1.5749,-1.5728,-1.5723,-1.5687,-1.5681,-1.5639,-1.5675,-1.5661,-1.5624,-1.5615,-1.5558,-1.5623,-1.5564,-1.5562,-1.5566,-1.544,-1.5417,-1.5316,-1.5484,-1.5481,-1.548,0,-1.584,-1.5811,-1.5724,-1.5705,-1.5689,-1.5649,-1.5614,-1.558,-1.5556,-1.5555,-1.5531,-1.5544,-1.549,-1.5537,-1.5461,-1.5506,-1.5482,-1.5474,-1.547,-1.5462,-1.5513,-1.5424,-1.5285,-1.5268,-1.5458,-1.546,-1.5462,0,-1.5749,-1.5689,-1.5629,-1.5615,-1.5592,-1.5563,-1.5552,-1.5531,-1.5507,-1.5476,-1.546,-1.5423,-1.5401,-1.5371,-1.5373,-1.5408,-1.5295,-1.5343,-1.5289,-1.5289,-1.5261,-1.5262,-1.5112,-1.5253,-1.5253,-1.5254,-1.5254,0,-1.5635,-1.558,-1.5587,-1.555,-1.5488,-1.5499,-1.5437,-1.5429,-1.541,-1.5369,-1.5391,-1.5352,-1.5359,-1.5319,-1.5321,-1.5256,-1.5247,-1.5242,-1.5242,-1.5238,-1.5238,-1.5219,-1.5225,-1.525,-1.525,-1.5251,-1.5252,0,-1.5522,-1.5525,-1.546,-1.5445,-1.544,-1.5394,-1.538,-1.5343,-1.5341,-1.5289,-1.5277,-1.5273,-1.5227,-1.5227,-1.5174,-1.5175,-1.5095,-1.5105,-1.5103,-1.5103,-1.5049,-1.5052,-1.4879,-1.4855,-1.5015,-1.5013,-1.5012,0,-1.5447,-1.5405,-1.5386,-1.5361,-1.5348,-1.5308,-1.5284,-1.5294,-1.5268,-1.5237,-1.5203,-1.516,-1.5126,-1.5051,-1.5041,-1.5,-1.5007,-1.4949,-1.5001,-1.4997,-1.5001,-1.5002,-1.4996,-1.4938,-1.4936,-1.4934,-1.4933,0,-1.5313,-1.5317,-1.5283,-1.5248,-1.5219,-1.5192,-1.5167,-1.5145,-1.5152,-1.5121,-1.5075,-1.5049,-1.4996,-1.4951,-1.4912,-1.4898,-1.4915,-1.4918,-1.4903,-1.4895,-1.4894,-1.489,-1.5071,-1.4921,-1.4922,-1.4923,-1.4924,-1.4924,-1.5214,-1.5177,-1.5157,-1.5117,-1.51,-1.5077,-1.5041,-1.5035,-1.4998,-1.4956,-1.4964,-1.4912,-1.4888,-1.4838,-1.482,-1.4778,-1.4798,-1.4777,-1.4771,-1.4764,-1.4756,-1.4905,-1.4772,-1.4772,-1.4772,-1.4773,-1.4773,0,-1.5077,-1.5066,-1.503,-1.4995,-1.4963,-1.4986,-1.496,-1.4931,-1.4885,-1.4863,-1.4829,-1.4775,-1.4732,-1.472,-1.4678,-1.4646,-1.4652,-1.4634,-1.4634,-1.463,-1.4743,-1.4759,-1.4629,-1.4629,-1.4629,-1.463,-1.463,-1.463,-1.5002,-1.494,-1.4942,-1.487,-1.486,-1.481,-1.4793,-1.477,-1.4752,-1.4691,-1.4656,-1.465,-1.463,-1.4587,-1.4547,-1.4545,-1.4526,-1.4504,-1.4504,-1.4608,-1.4623,-1.4636,-1.465,-1.4501,-1.4501,-1.4394,-1.4393,-1.4392]}]]